Location: Rumah Apan
(2.7833°N, 113.9500°E)
Time: 00:38:12
(UTC+00:00)

Cosmos 405 Rocket - Pass Details

Date: 25 July 2021
Orbit: 488 x 553 km, 81.3° (Epoch: 22 September)

Event Time Altitude Azimuth Distance (km) Brightness Sun altitude
Rises 11:17:30 0° 171° (S) 2,582 6.0 -10.0°
Reaches altitude 10° 11:19:43 10° 162° (SSE) 1,706 5.0 -10.6°
Maximum altitude 11:23:10 36° 94° (E) 820 3.2 -11.4°
Drops below altitude 10° 11:26:40 10° 27° (NNE) 1,734 5.3 -12.2°
Sets 11:28:56 0° 19° (NNE) 2,631 6.3 -12.7°
